HAMSAT

Satellite information

Favourite Embed

Satellite Type and Status

PAYLOADIN ORBIT

Key statistics

Satellite HAMSAT at a glance.

Uptime

7369

Days in orbit

Revolutions

≈ 15.1

Per day

Orbit

SSO

Sun Synchronous Orbit

Inclination

98.0

Latest

Satellite identification and parameters

Extended collection of information and parameters for HAMSAT.

Object identification

Identified? True

Debris? False

Object name: HAMSAT

International designator: 2005-017B

Object number (NORAD): 28650

Object ID (CCSDS): 28650

Country: INDIA (IND)

Current information (Y/N): Y

RCS size: MEDIUM

Orbital parameters

Period: 95.656 minutes

Inclination: 98.0034 deg

SMA: 6928.452 km

Apoapsis: 566.094 km

Periapsis: 534.54 km

RAAN: 191.7013 deg

Eccentricy: 0.0022771

Argument of periapsis: 122.4527 deg

Mean anomaly: 237.8905 deg

Mean motion: 15.05387965 rev/day

Mean motion (dot): 0.00003825 rev/day2

B* drag term: 0.00026998 1/REarth

Two-line elements (TLE)

Creation date: July 6, 2025, 6:05 p.m.

Reference frame: TEME

Reference center: EARTH

Epoch: July 6, 2025, 12:54 p.m. UTC

TLE line 0: 0 HAMSAT

TLE line 1: 1 28650U 05017B 25187.53765098 .00003825 00000-0 26998-3 0 9995

TLE line 2: 2 28650 98.0034 191.7013 0022771 122.4527 237.8905 15.05387965 94681

Live tracking on map

Real-time ground track for satellite HAMSAT.

In-orbit conjunctions

There are no conjunctions computed for HAMSAT, at the moment. Check back to stay up to date, as we update our databases every day.

Go to all conjunctions

Associated space launch

Cartosat-1 or IRS-P5 is a stereoscopic Earth observation satellite in a sun-synchronous orbit, and the first one of the Cartosat series of satellites. The eleventh satellite of ISRO in IRS series.

HAMSAT was lifted into orbit during the mission ‘PSLV | Cartosat-1’, on board a PSLV space rocket.

The launch took place on May 5, 2005, 4:45 a.m. from Satish Dhawan Space Centre Second Launch Pad.

For more information about the launch, click the button.

Launch to space PSLV | Cartosat-1
PSLV | Cartosat-1

Agency: N/A

Status: Launch Successful

Launch date: May 5, 2005, 4:45 a.m. UTC

Rocket: PSLV

Launch pad: Satish Dhawan Space Centre Second Launch Pad

Location: Satish Dhawan Space Centre, India

...

Latest news about this satellite

There are no fresh news available about this satellite. Check back as we update our databases every day.


Newsletter sign-up

Weekly statistics, charts and insights to help you stay on top of the space industry.